Weather in Vedi

Armenia     39°54′50″N   44°43′15″E
В апреле 2022 года жителям России запретили посещать сайт meteo.paraplan.net по решению Генеральной прокуратуры. Аудитория сайта уменьшилась в 10 раз. Владельцы сайта не видят смысла в поддержке погодного сервера в таких условиях. Сайт будет закрыт в октябре.
temp.,
°C
wind,
m/s
gust,
m/s
humid.,
%
clouds,
%
prec.,
mm/h
press.,
hPa
HPBL,
m
3 october, mon
mon301:00+17ene4328100 0.0 100930
04:00+16ene2229100 0.0 100915
07:00+15ene2234100 0.0 100912
10:00+21sw2223100 0.0 1009574
13:00+25sw321982 0.0 10081163
16:00+26wnw2117100 0.0 10071261
19:00+20se112592 0.0 100811
22:00+21ene552218 0.0 100947
4 october, tue
tue401:00+20e222496 0.0 101018
04:00+17ene32282 0.0 101115
07:00+15ene22350 0.0 101313
10:00+22sw22250 0.0 1015653
13:00+26ssw44190 0.0 10131613
16:00+27s44150 0.0 10121885
19:00+22e33202 0.0 101314
22:00+21ene44200 0.0 101534
5 october, wed
wed501:00+19ene33220 0.0 101718
04:00+18ene43260 0.0 101821
07:00+17ene43250 0.0 101923
10:00+24sw33175 0.0 1018751
13:00+27ssw34145 0.0 10172528
16:00+28s221242 0.0 10152658
19:00+21ese1118100 0.0 101612
22:00+21ene54188 0.0 101742
6 october, thu
thu601:00+20ene541867 0.0 101735
04:00+18ene3318100 0.0 101718
07:00+17ene32217 0.0 101715
10:00+23sw22164 0.0 1017613
13:00+27ssw32143 0.0 10141735
16:00+28ssw25115 0.0 10123070
19:00+21ene111940 0.0 101311
22:00+20ene55295 0.0 101449
7 october, fri
fri701:00+16e23474 0.0 101727
04:00+14e11560 0.0 101719
07:00+13ese22600 0.0 101817
10:00+18sw22450 0.0 1019521
13:00+22sw32350 0.0 1017854
16:00+24ssw23270 0.0 10131052
19:00+18e22411 0.0 101518
22:00+17ene45505 0.0 101662